Location: Quaker Farms
(41.4276°N, 73.1557°W)
Time: 01:04:58
(UTC+00:00)

Altair - Pass Details

Date: 22 June 2021
Orbit: 1501 x 1682 km, 47.2° (Epoch: 23 July)

Event Time Altitude Azimuth Distance (km) Brightness Sun altitude
Rises 16:18:46 0° 216° (SW) 4,635 10.1 70.5°
Reaches altitude 10° 16:21:51 10° 212° (SSW) 3,668 9.8 70.7°
Maximum altitude 16:30:42 52° 139° (SE) 1,861 9.6 71.3°
Drops below altitude 10° 16:39:51 10° 67° (ENE) 3,801 9.7 71.7°
Sets 16:43:06 0° 63° (ENE) 4,814 10.0 71.8°
